Preview of NWS' New Version of Forecast
This preview is not operational and should not be used for support decisions.

Regional Weather Roundup (RWR)

Issued by National Weather Service (NWS)

                            
000
ASCA42 TJSJ 190210
RWRPR 
PUERTO RICO/U.S. VIRGIN ISLANDS HOURLY WEATHER ROUNDUP
NATIONAL WEATHER SERVICE SAN JUAN PR
1000 PM AST SAT MAY 18 2019

PRZ001>002-007>008-010-190300-
PUERTO RICO
  
CITY           SKY/WX    TMP DP  RH WIND       PRES   REMARKS
SAN JUAN LMM   PTCLDY    81  73  78 E9        30.00R                  
CEIBA          CLOUDY    82  72  69 E7        30.01R                  
$$

VIZ001>002-190300-
U.S. VIRGIN ISLANDS
  
CITY           SKY/WX    TMP DP  RH WIND       PRES   REMARKS
CHARLOTTE AMA  CLEAR     81  70  69 E9        29.99R                  
CHRISTIANSTED  CLEAR     79  72  78 NE5       30.00R                  
$$

HOURLY WEATHER ROUNDUP FOR THE NEWS MEDIA
  
CITY           SKY/WX    TMP DP  RH WIND       PRES   REMARKS
ORLANDO        FAIR      73  61  65 E9        30.03R                  
NEW YORK       FAIR      58  51  78 S12       30.07R                  
NEWARK         FAIR      63  48  58 S5        30.05R                  
CHICAGO        MOCLDY    65  62  90 E6        29.70S                  
HARTFORD       FAIR      54  48  80 S6        30.08R                  
BOSTON         MOCLDY    57  45  64 E9        30.07R                  
DALLAS         TSTM      72  67  84 S9        29.68R                  
PHILADELPHIA   FAIR      65  46  50 S5        30.06R                  
LOS ANGELES    CLOUDY    61  52  72 W13       29.91F                  
WASHINGTON DC  FAIR      73  65  75 S5        30.01R